Погода в Баклани

Россия / Брянская область     52°44′20″N   33°15′26″E
темп.,
°C
ветер,
м/с
пор.,
м/с
влажн.,
%
обл.,
%
осадки,
мм/ч
давл.,
гПа
погр.,
м
24 мая, вт
вт2400:00+5сз33720 0.0 101038
03:00+4зсз37750 0.0 101192
06:00+5сз36845 0.0 1011131
09:00+12ссз586933 0.0 1011614
12:00+14ссз6846100 0.0 10111402
15:00+16ссз4848100 0.0 10112143
18:00+15сз477458 0.4 1012769
21:00+10зсз478615 0.6 1013110
25 мая, ср
ср2500:00+8сз49915 0.0 1014137
03:00+7сз359150 0.0 101566
06:00+8ссз23891 0.0 101655
09:00+13з347886 0.0 1016304
12:00+18сз585712 0.1 10161597
15:00+16зсз4870100 0.5 1016291
18:00+18з366799 0.3 1015425
21:00+13зюз2275100 0.3 101616
26 мая, чт
чт2600:00+12зюз367898 0.0 1015114
03:00+9ююз348460 0.0 101457
06:00+9ю3788100 0.0 1012146
09:00+11ююв51287100 0.4 1010464
12:00+11ююв5998100 7.9 1007595
15:00+11зюз2598100 9.9 1006327
18:00+11сз7139356 0.6 1008750
21:00+9з36956 0.6 1009111
27 мая, пт
пт2700:00+9зюз4129658 0.0 1009261
03:00+10зюз6149591 0.0 1008437
06:00+11з7149316 0.0 1008726
09:00+13з812790 0.1 10091082
12:00+15з8116162 0.1 10091960
15:00+16з8116131 0.1 10081897
18:00+13зюз3880100 0.1 1007244
21:00+14ююз61485100 0.9 1004683
28 мая, сб
сб2800:00+12з51092100 7.1 1004460
03:00+10з61195100 7.4 1004545
06:00+9з51095100 0.4 1004624
09:00+12з687413 0.5 10051204
12:00+14зюз6960100 0.1 10051919
15:00+12з811778 1.4 10061285
18:00+12з7127583 0.6 10071382
21:00+7юз36820 0.6 100996